Location: Dackenheim
(49.5215°N, 8.1854°E)
Time: 12:49:38
(UTC+00:00)

JY1SAT - Pass Details

Date: 15 March 2026
Orbit: 466 x 476 km, 97.4° (Epoch: 14 April)

Event Time Altitude Azimuth Distance (km) Brightness Sun altitude
Exits shadow 20:21:30 21° 355° (N) 1,130 ? -27.0°
Drops below altitude 10° 20:22:49 10° 351° (N) 1,667 ? -27.2°
Sets 20:24:53 0° 349° (N) 2,551 ? -27.4°
